EW3904 Weather Reports


Display with metric or nautical units.
time (UTC)temp
F
wind
direction
speed
MPH
gust
MPH
rain 1hr
in
rain 24hr
in
rain mn
in
humidity
%
barometer
mb
20260504050214 49 293 0.0 2.0 0.00 0.00 0.00 83 1018.3
20260504045214 49 293 0.0 0.0 0.00 0.00 0.00 82 1018.4
20260504044214 49 293 0.0 0.0 0.00 0.00 0.00 83 1018.2
20260504043214 50 293 0.0 0.0 0.00 0.00 0.00 82 1018.2
20260504042214 50 293 0.0 2.0 0.00 0.00 0.00 82 1018.2
20260504041214 50 293 0.0 0.0 0.00 0.00 0.00 83 1018.3
20260504035214 51 293 0.0 0.0 0.00 0.00 0.00 80 1018.4
20260504034214 52 293 0.0 0.0 0.00 0.00 0.00 79 1018.4
20260504032214 52 293 0.0 0.0 0.00 0.00 0.00 78 1018.2
20260504031214 52 293 0.0 0.0 0.00 0.00 0.00 78 1018.1
20260504030213 52 293 0.0 0.0 0.00 0.00 0.00 78 1018.2
20260504025214 53 293 0.0 0.0 0.00 0.00 0.00 79 1018.1
20260504024213 54 293 0.0 2.0 0.00 0.00 0.00 75 1018.0
20260504023213 53 299 0.0 2.0 0.00 0.00 0.00 76 1018.0
20260504022213 54 299 0.0 1.0 0.00 0.00 0.00 74 1017.7
20260504021213 54 240 1.0 1.0 0.00 0.00 0.00 74 1017.6
20260504013213 57 254 0.0 1.0 0.00 0.00 0.00 67 1017.3
20260504012213 57 254 0.0 0.0 0.00 0.00 0.00 66 1017.0
20260504011213 58 254 0.0 2.0 0.00 0.00 0.00 65 1016.9
20260504010212 59 254 0.0 2.0 0.00 0.00 0.00 63 1016.9
20260504004212 61 254 1.0 2.0 0.00 0.00 0.00 58 1016.7
20260504003212 62 254 0.0 1.0 0.00 0.00 0.00 57 1016.6
20260504002213 63 254 1.0 2.0 0.00 0.00 0.00 52 1016.6
20260504001212 65 248 0.0 1.0 0.00 0.00 0.00 50 1016.6
20260504000212 67 248 1.0 2.0 0.00 0.00 0.00 45 1016.5
20260503235213 67 263 1.0 5.0 0.00 0.00 0.00 42 1016.4
20260503234213 68 280 2.0 5.0 0.00 0.00 0.00 36 1016.5
20260503233212 69 304 4.0 4.0 0.00 0.00 0.00 36 1016.5
20260503232212 70 281 4.0 5.0 0.00 0.00 0.00 33 1016.4
20260503231212 70 284 5.0 7.0 0.00 0.00 0.00 35 1016.4
20260503230211 70 275 7.0 9.0 0.00 0.00 0.00 34 1016.5
20260503225212 70 256 6.0 7.0 0.00 0.00 0.00 33 1016.4
20260503224212 70 302 4.0 8.0 0.00 0.00 0.00 33 1016.4
20260503223211 71 304 4.0 8.0 0.00 0.00 0.00 35 1016.5
20260503222212 71 260 7.0 10.0 0.00 0.00 0.00 33 1016.4
20260503221212 71 248 6.0 8.0 0.00 0.00 0.00 33 1016.6
20260503220212 71 250 3.0 8.0 0.00 0.00 0.00 34 1016.9
20260503215212 71 269 12.0 12.0 0.00 0.00 0.00 35 1016.8
20260503213211 71 250 4.0 9.0 0.00 0.00 0.00 32 1016.8
20260503212212 71 319 3.0 8.0 0.00 0.00 0.00 33 1016.7
20260503211211 71 265 8.0 9.0 0.00 0.00 0.00 32 1016.8
20260503210211 71 247 7.0 8.0 0.00 0.00 0.00 32 1016.8
20260503205211 70 273 3.0 8.0 0.00 0.00 0.00 32 1016.8
20260503204211 71 288 6.0 9.0 0.00 0.00 0.00 33 1016.9
20260503203211 71 260 7.0 9.0 0.00 0.00 0.00 33 1017.1
20260503202211 70 340 2.0 10.0 0.00 0.00 0.00 34 1017.2
20260503201211 71 311 9.0 11.0 0.00 0.00 0.00 32 1017.2
20260503200211 70 287 3.0 10.0 0.00 0.00 0.00 33 1017.4
20260503195211 70 279 6.0 9.0 0.00 0.00 0.00 33 1017.6
20260503194211 69 258 6.0 11.0 0.00 0.00 0.00 36 1017.6
20260503193211 69 248 4.0 9.0 0.00 0.00 0.00 37 1017.8
20260503192211 70 271 3.0 9.0 0.00 0.00 0.00 35 1018.3
20260503191211 69 325 7.0 10.0 0.00 0.00 0.00 36 1018.4
20260503190211 69 273 9.0 11.0 0.00 0.00 0.00 39 1018.4
20260503185211 68 229 1.0 13.0 0.00 0.00 0.00 33 1018.9
20260503184211 68 281 7.0 10.0 0.00 0.00 0.00 39 1019.0
20260503183211 68 248 4.0 10.0 0.00 0.00 0.00 37 1019.1
20260503180210 68 259 5.0 8.0 0.00 0.00 0.00 42 1019.3
20260503175211 67 291 3.0 7.0 0.00 0.00 0.00 40 1019.3
20260503173210 66 246 3.0 4.0 0.00 0.00 0.00 37 1019.3
20260503170210 66 309 4.0 10.0 0.00 0.00 0.00 39 1019.5
20260503160210 63 314 3.0 10.0 0.00 0.00 0.00 42 1020.0
20260503150209 62 306 3.0 9.0 0.00 0.00 0.00 47 1020.3
20260503131209 56 331 1.0 5.0 0.00 0.00 0.00 70 1019.9
20260503130208 55 346 3.0 4.0 0.00 0.00 0.00 71 1019.8
20260503110207 45 315 1.0 3.0 0.00 0.01 0.00 82 1018.5
20260503090207 44 336 0.0 0.0 0.00 0.03 0.00 85 1018.1
20260503081207 46 336 0.0 0.0 0.00 0.05 0.00 82 1017.8
20260503080236 47 336 0.0 0.0 0.00 0.05 0.00 80 1017.6
20260503071206 50 317 1.0 3.0 0.00 0.06 0.00 70 1017.2
20260503070236 49 313 1.0 4.0 0.00 0.07 0.00 71 1017.1
20260503060206 46 279 0.0 0.0 0.00 0.12 0.00 83 1016.8
20260503054205 46 279 0.0 0.0 0.00 0.13 0.00 83 1016.8